Hourly Weather Roundup
Issued by NWS Central Illinois

Home | Current Version | Previous Version | Text Only | Print | Product List | Glossary On
Versions: 1 2 3 4 5 6 7 8 9 10 11 12 13 14 15 16 17 18 19 20 21 22 23 24 25 26 27 28 29 30 31 32 33 34 35 36 37 38 39 40 41 42 43 44 45 46 47 48 49 50
000
NZUS43 KILX 232310
HWRILX

AREA WEATHER ROUNDUP
NATIONAL WEATHER SERVICE, LINCOLN IL
600 PM CDT WED APR 23 2014


CITY           SKY/WX    TMP DP  RH WIND       PRES   REMARKS
BLOOMINGTON    CLOUDY    57  25  29 SE6       30.07F
CHAMPAIGN      MOSUNNY   60  27  28 E7        30.06S
DANVILLE       SUNNY     59  27  29 E6        30.04S
DECATUR        CLOUDY    61  25  25 E6        30.06R
FLORA          SUNNY     62  31  32 E6        30.04S
GALESBURG      LGT RAIN  49  40  71 E7        30.02S
JACKSONVILLE   CLOUDY    61  29  29 E13       30.02S
LACON          CLOUDY    57  29  33 E7        30.06F
LAWRENCEVILLE  SUNNY     63  30  28 E7        30.04F
LITCHFIELD     LGT RAIN  59  34  39 E9        30.02F
$$


CITY           SKY/WX    TMP DP  RH WIND       PRES   REMARKS
LINCOLN        CLOUDY    62  27  26 E7        30.04F
MACOMB         CLOUDY    54  37  53 SE10      30.03F
MATTOON        CLOUDY    59  28  30 E7        30.04S
MT CARMEL AP   SUNNY     64  30  27 NE5       30.04S
OLNEY-NOBLE AP MOSUNNY   59  32  36 E6        30.04S
PARIS          MOSUNNY   61  30  31 NE5       30.06S
PEORIA         LGT RAIN  58  36  43 SE6       30.06F
PONTIAC        CLOUDY    59  28  31 E8        30.07F
RANTOUL        MOSUNNY   62  23  22 CALM      30.08R
ROBINSON       MOSUNNY   63  35  35 E5        30.06S
SPRINGFIELD    CLOUDY    62  26  25 E10       30.03F
TAYLORVILLE    CLOUDY    59  28  31 E6        30.04F
$$

...REGIONAL REPORTS...


CITY           SKY/WX    TMP DP  RH WIND       PRES   REMARKS
CHICAGO O`HARE CLOUDY    46  20  35 NE6       30.12S
KANKAKEE       PTSUNNY   52  33  47 N9        30.10S
MOLINE         LGT RAIN  50  39  66 E10       30.01F
MOUNT VERNON   SUNNY     63  34  34 E8        30.04R
PITTSFIELD     CLOUDY    60  34  38 E8        30.01F
QUINCY         CLOUDY    60  33  36 SE15      29.98F
ROCKFORD       CLOUDY    54  26  34 E8        30.10F
$$


CITY           SKY/WX    TMP DP  RH WIND       PRES   REMARKS
BURLINGTON     CLOUDY    53  39  59 E3        30.02R
CEDAR RAPIDS   LGT RAIN  46  40  79 SE10      29.99R
DES MOINES     CLOUDY    49  39  68 E15G30    29.86F
KIRKSVILLE     CLOUDY    60  38  43 SE21G29   29.91F
OTTUMWA        LGT RAIN  50  39  66 SE20      29.91S
ST LOUIS       CLOUDY    63  34  33 E14       29.99F
$$


CITY           SKY/WX    TMP DP  RH WIND       PRES   REMARKS
TERRE HAUTE    SUNNY     61  27  27 E3        30.05S
EVANSVILLE     SUNNY     65  30  27 N7        30.03S
INDIANAPOLIS   MOSUNNY   57  28  33 NE6       30.06R
LAFAYETTE      SUNNY     57  27  31 E5        30.07S
MADISON        CLOUDY    54  25  32 SE13      30.08F
MILWAUKEE      CLOUDY    41  22  46 NE7       30.14F
$$




USA.gov is the U.S. government's official web portal to all federal, state and local government web resources and services.